Beidou DW 41

operational
NORAD ID: 43683 Int'l Des: 2018-085 Owner: CNSA Country: CN Constellation: BeiDou
HEOCIRCULARGSO

About Beidou DW 41

Description loading...

Live Position

Loading 3D Globe...

Upcoming Passes

Altitude History

Altitude vs Time

uPlot chart will show altitude changes over time

Two-Line Element Set

1 43683U 18085A 25302.92695174 -.00000265 00000-0 00000-0 0 9995
2 43683 2.4937 104.4318 0002820 46.8732 0.9148 1.00278812 25754
Epoch: Oct 29, 2025 • Age: 26 hours

Current Status

Altitude 35774.0 km
Velocity 3.08 km/s
Sub-Earth Point 2.44°N, 140.02°E
Launch Date Nov 1, 2018
Age 6.9 years
Type navigation

Technical Details

Classification Payload
Mass 3060.00 kg
Dry Mass 1700.00 kg
Total Mass 3060.00 kg
Length 3.00 m
Diameter 1.70 m
Span 18.00 m
Shape Box + 2 Pan
Manufacturer CAST
Bus Type DFH-3B
Phase Status In Orbit
Owner/State CNSA/CN

Large Constellations

Loading constellations...